Time,TemperatureF,DewpointF,PressureIn,WindDirection,WindDirectionDegrees,WindSpeedMPH,WindSpeedGustMPH,Humidity,HourlyPrecipIn,Conditions,Clouds,dailyrainin,SoftwareType,DateUTC
2013-01-15 00:02:00,35.6,33.2,30.15,NNE,30,3.0,6.0,91,0.00,,,0.00,Wunderground v.1.15,2013-01-15 06:02:00,
2013-01-15 00:08:00,35.9,33.8,30.15,NE,41,2.0,2.0,92,0.00,,,0.00,Wunderground v.1.15,2013-01-15 06:08:00,
2013-01-15 00:13:00,35.9,33.5,30.14,NW,305,1.0,3.0,91,0.00,,,0.00,Wunderground v.1.15,2013-01-15 06:13:00,
2013-01-15 00:18:00,35.9,33.5,30.14,NNE,33,1.0,2.0,91,0.00,,,0.00,Wunderground v.1.15,2013-01-15 06:18:00,
2013-01-15 00:24:00,35.9,33.5,30.14,NE,56,1.0,5.0,91,0.00,,,0.00,Wunderground v.1.15,2013-01-15 06:24:00,
2013-01-15 00:29:00,35.8,33.2,30.14,North,5,2.0,5.0,90,0.00,,,0.00,Wunderground v.1.15,2013-01-15 06:29:00,
2013-01-15 00:35:00,35.8,33.4,30.15,NNE,22,2.0,5.0,91,0.00,,,0.00,Wunderground v.1.15,2013-01-15 06:35:00,
2013-01-15 00:40:00,35.9,33.5,30.15,ENE,62,1.0,2.0,91,0.00,,,0.00,Wunderground v.1.15,2013-01-15 06:40:00,
2013-01-15 00:46:00,35.8,33.4,30.15,ENE,60,1.0,3.0,91,0.00,,,0.00,Wunderground v.1.15,2013-01-15 06:46:00,
2013-01-15 00:52:00,35.8,33.4,30.15,NW,322,1.0,2.0,91,0.00,,,0.00,Wunderground v.1.15,2013-01-15 06:52:00,
2013-01-15 00:57:00,35.9,33.5,30.15,NNE,20,1.0,1.0,91,0.00,,,0.00,Wunderground v.1.15,2013-01-15 06:57:00,
2013-01-15 01:02:00,35.9,33.5,30.15,NNE,33,1.0,7.0,91,0.00,,,0.00,Wunderground v.1.15,2013-01-15 07:02:00,
2013-01-15 01:08:00,35.7,33.3,30.14,NNW,347,2.0,7.0,91,0.00,,,0.00,Wunderground v.1.15,2013-01-15 07:08:00,
2013-01-15 01:13:00,35.6,33.2,30.14,NNW,348,3.0,7.0,91,0.00,,,0.00,Wunderground v.1.15,2013-01-15 07:13:00,
2013-01-15 01:19:00,35.5,33.1,30.14,NE,48,3.0,7.0,91,0.00,,,0.00,Wunderground v.1.15,2013-01-15 07:19:00,
2013-01-15 01:25:00,35.5,33.1,30.15,ENE,73,2.0,7.0,91,0.00,,,0.00,Wunderground v.1.15,2013-01-15 07:25:00,
2013-01-15 01:30:00,35.6,33.2,30.14,NNW,345,1.0,7.0,91,0.00,,,0.00,Wunderground v.1.15,2013-01-15 07:30:00,
2013-01-15 01:36:00,35.6,33.2,30.15,NW,319,1.0,7.0,91,0.00,,,0.00,Wunderground v.1.15,2013-01-15 07:36:00,
2013-01-15 01:42:00,35.6,33.5,30.15,NNW,327,1.0,7.0,92,0.00,,,0.00,Wunderground v.1.15,2013-01-15 07:42:00,
2013-01-15 01:47:00,35.6,33.2,30.15,WNW,294,1.0,1.0,91,0.00,,,0.00,Wunderground v.1.15,2013-01-15 07:47:00,
2013-01-15 01:53:00,35.6,33.5,30.15,NNE,13,1.0,7.0,92,0.00,,,0.00,Wunderground v.1.15,2013-01-15 07:53:00,
2013-01-15 01:59:00,35.5,33.4,30.14,ENE,72,1.0,7.0,92,0.00,,,0.00,Wunderground v.1.15,2013-01-15 07:59:00,
2013-01-15 03:37:00,34.8,33.2,30.12,ENE,65,2.0,2.0,94,0.00,,,0.02,Wunderground v.1.15,2013-01-15 09:37:00,
2013-01-15 03:42:00,34.9,33.3,30.12,ENE,63,1.0,7.0,94,0.00,,,0.02,Wunderground v.1.15,2013-01-15 09:42:00,
2013-01-15 03:47:00,34.9,33.3,30.11,NNW,347,1.0,1.0,94,0.00,,,0.02,Wunderground v.1.15,2013-01-15 09:47:00,
2013-01-15 03:53:00,34.9,33.3,30.11,ESE,107,1.0,7.0,94,0.00,,,0.02,Wunderground v.1.15,2013-01-15 09:53:00,
2013-01-15 03:58:00,34.9,33.3,30.11,NNE,22,1.0,7.0,94,0.00,,,0.02,Wunderground v.1.15,2013-01-15 09:58:00,
2013-01-15 04:03:00,34.8,33.0,30.12,NE,43,2.0,7.0,93,0.00,,,0.02,Wunderground v.1.15,2013-01-15 10:03:00,
2013-01-15 04:09:00,34.8,33.2,30.12,NNE,25,2.0,7.0,94,0.00,,,0.03,Wunderground v.1.15,2013-01-15 10:09:00,
2013-01-15 04:14:00,34.8,33.2,30.12,North,353,1.0,7.0,94,0.00,,,0.03,Wunderground v.1.15,2013-01-15 10:14:00,
2013-01-15 04:20:00,34.7,33.2,30.13,NNE,24,2.0,7.0,94,0.00,,,0.03,Wunderground v.1.15,2013-01-15 10:20:00,
2013-01-15 04:26:00,34.7,33.2,30.12,NE,41,2.0,7.0,94,0.00,,,0.03,Wunderground v.1.15,2013-01-15 10:26:00,
2013-01-15 04:31:00,34.7,33.2,30.12,ENE,63,1.0,7.0,94,0.00,,,0.03,Wunderground v.1.15,2013-01-15 10:31:00,
2013-01-15 04:36:00,34.5,32.7,30.11,NW,324,3.0,7.0,93,0.00,,,0.03,Wunderground v.1.15,2013-01-15 10:36:00,
2013-01-15 04:42:00,34.6,33.1,30.11,NNW,345,4.0,7.0,94,0.00,,,0.03,Wunderground v.1.15,2013-01-15 10:42:00,
2013-01-15 04:47:00,34.5,32.7,30.10,NW,319,3.0,3.0,93,0.00,,,0.03,Wunderground v.1.15,2013-01-15 10:47:00,
2013-01-15 04:52:00,34.6,33.1,30.11,North,6,3.0,7.0,94,0.00,,,0.03,Wunderground v.1.15,2013-01-15 10:52:00,
2013-01-15 04:58:00,34.7,33.2,30.11,North,359,3.0,4.0,94,0.00,,,0.03,Wunderground v.1.15,2013-01-15 10:58:00,
2013-01-15 05:04:00,34.6,33.1,30.10,ENE,58,3.0,7.0,94,0.00,,,0.03,Wunderground v.1.15,2013-01-15 11:04:00,
2013-01-15 05:09:00,34.7,33.2,30.10,NNE,16,3.0,7.0,94,0.00,,,0.03,Wunderground v.1.15,2013-01-15 11:09:00,
2013-01-15 05:15:00,34.7,32.9,30.09,NNW,330,3.0,7.0,93,0.00,,,0.03,Wunderground v.1.15,2013-01-15 11:15:00,
2013-01-15 05:20:00,34.7,33.2,30.10,NNE,33,3.0,7.0,94,0.00,,,0.03,Wunderground v.1.15,2013-01-15 11:20:00,
2013-01-15 05:26:00,34.7,32.9,30.10,ENE,71,2.0,7.0,93,0.00,,,0.03,Wunderground v.1.15,2013-01-15 11:26:00,
2013-01-15 05:31:00,34.8,33.2,30.10,WNW,302,3.0,7.0,94,0.00,,,0.03,Wunderground v.1.15,2013-01-15 11:31:00,
2013-01-15 05:36:00,34.9,33.1,30.11,NE,41,2.0,7.0,93,0.00,,,0.03,Wunderground v.1.15,2013-01-15 11:36:00,
2013-01-15 05:42:00,34.8,33.0,30.11,NE,52,3.0,7.0,93,0.00,,,0.03,Wunderground v.1.15,2013-01-15 11:42:00,
2013-01-15 05:47:00,34.9,33.3,30.11,NNW,346,2.0,2.0,94,0.00,,,0.03,Wunderground v.1.15,2013-01-15 11:47:00,
2013-01-15 05:53:00,34.9,33.3,30.11,NW,325,1.0,7.0,94,0.00,,,0.03,Wunderground v.1.15,2013-01-15 11:53:00,
2013-01-15 05:58:00,34.8,33.0,30.11,NNE,16,1.0,7.0,93,0.00,,,0.03,Wunderground v.1.15,2013-01-15 11:58:00,
2013-01-15 06:04:00,34.7,32.9,30.11,NNE,20,2.0,7.0,93,0.00,,,0.03,Wunderground v.1.15,2013-01-15 12:04:00,
2013-01-15 06:09:00,34.7,33.2,30.10,North,11,2.0,7.0,94,0.00,,,0.03,Wunderground v.1.15,2013-01-15 12:09:00,
2013-01-15 06:15:00,34.8,33.2,30.11,West,274,1.0,7.0,94,0.00,,,0.03,Wunderground v.1.15,2013-01-15 12:15:00,
2013-01-15 06:20:00,34.8,33.2,30.11,WSW,243,1.0,7.0,94,0.00,,,0.03,Wunderground v.1.15,2013-01-15 12:20:00,
2013-01-15 06:26:00,34.8,33.2,30.11,NNE,33,1.0,7.0,94,0.00,,,0.03,Wunderground v.1.15,2013-01-15 12:26:00,
2013-01-15 06:32:00,34.5,32.7,30.11,North,4,2.0,7.0,93,0.00,,,0.03,Wunderground v.1.15,2013-01-15 12:32:00,
2013-01-15 06:37:00,34.5,33.0,30.10,NNE,33,2.0,7.0,94,0.00,,,0.03,Wunderground v.1.15,2013-01-15 12:37:00,
2013-01-15 06:43:00,34.5,33.0,30.11,NW,314,2.0,7.0,94,0.00,,,0.04,Wunderground v.1.15,2013-01-15 12:43:00,
2013-01-15 06:48:00,34.5,33.0,30.10,NE,47,1.0,7.0,94,0.00,,,0.04,Wunderground v.1.15,2013-01-15 12:48:00,
2013-01-15 06:54:00,34.5,33.0,30.11,WNW,297,2.0,7.0,94,0.04,,,0.05,Wunderground v.1.15,2013-01-15 12:54:00,
2013-01-15 06:59:00,34.6,33.1,30.12,NE,56,1.0,7.0,94,0.04,,,0.05,Wunderground v.1.15,2013-01-15 12:59:00,
2013-01-15 07:05:00,34.4,32.9,30.11,NNE,23,2.0,7.0,94,0.04,,,0.05,Wunderground v.1.15,2013-01-15 13:05:00,
2013-01-15 07:10:00,34.4,32.9,30.09,NNW,336,2.0,7.0,94,0.04,,,0.05,Wunderground v.1.15,2013-01-15 13:10:00,
2013-01-15 07:15:00,34.4,32.9,30.11,NE,41,1.0,7.0,94,0.00,,,0.06,Wunderground v.1.15,2013-01-15 13:15:00,
2013-01-15 07:20:00,34.4,32.9,30.11,NW,309,1.0,7.0,94,0.00,,,0.06,Wunderground v.1.15,2013-01-15 13:20:00,
2013-01-15 07:26:00,34.2,32.7,30.10,WNW,287,1.0,7.0,94,0.00,,,0.06,Wunderground v.1.15,2013-01-15 13:26:00,
2013-01-15 07:31:00,34.3,32.8,30.12,NW,307,1.0,7.0,94,0.00,,,0.06,Wunderground v.1.15,2013-01-15 13:31:00,
2013-01-15 07:37:00,34.3,32.8,30.11,North,360,1.0,7.0,94,0.00,,,0.06,Wunderground v.1.15,2013-01-15 13:37:00,
2013-01-15 07:42:00,34.3,32.8,30.12,North,356,1.0,7.0,94,0.00,,,0.07,Wunderground v.1.15,2013-01-15 13:42:00,
2013-01-15 07:47:00,34.1,32.6,30.13,NNE,25,1.0,7.0,94,0.00,,,0.07,Wunderground v.1.15,2013-01-15 13:47:00,
2013-01-15 07:53:00,34.1,32.6,30.13,NNE,20,1.0,7.0,94,0.00,,,0.07,Wunderground v.1.15,2013-01-15 13:53:00,
2013-01-15 07:59:00,34.2,32.7,30.12,NNW,343,1.0,7.0,94,0.00,,,0.07,Wunderground v.1.15,2013-01-15 13:59:00,
2013-01-15 08:04:00,34.1,32.6,30.12,NNE,30,1.0,7.0,94,0.00,,,0.07,Wunderground v.1.15,2013-01-15 14:04:00,
2013-01-15 08:09:00,34.0,32.5,30.14,NE,35,2.0,7.0,94,0.00,,,0.07,Wunderground v.1.15,2013-01-15 14:09:00,
2013-01-15 08:14:00,33.9,32.4,30.13,NNE,20,3.0,7.0,94,0.00,,,0.08,Wunderground v.1.15,2013-01-15 14:14:00,
2013-01-15 08:20:00,33.9,32.4,30.12,NNE,22,3.0,7.0,94,0.00,,,0.08,Wunderground v.1.15,2013-01-15 14:20:00,
2013-01-15 08:25:00,34.0,32.5,30.13,NNE,22,2.0,7.0,94,0.00,,,0.08,Wunderground v.1.15,2013-01-15 14:25:00,
2013-01-15 08:31:00,34.0,32.5,30.13,NNW,340,1.0,7.0,94,0.00,,,0.08,Wunderground v.1.15,2013-01-15 14:31:00,
2013-01-15 08:36:00,34.0,32.5,30.13,NE,48,2.0,7.0,94,0.00,,,0.08,Wunderground v.1.15,2013-01-15 14:36:00,
2013-01-15 08:42:00,34.0,32.5,30.13,NNW,347,2.0,7.0,94,0.00,,,0.08,Wunderground v.1.15,2013-01-15 14:42:00,
2013-01-15 08:47:00,34.0,32.5,30.13,NNW,339,2.0,2.0,94,0.00,,,0.08,Wunderground v.1.15,2013-01-15 14:47:00,
2013-01-15 08:52:00,34.1,32.6,30.13,NE,52,1.0,7.0,94,0.00,,,0.08,Wunderground v.1.15,2013-01-15 14:52:00,
2013-01-15 08:58:00,34.3,32.8,30.14,North,352,1.0,7.0,94,0.00,,,0.08,Wunderground v.1.15,2013-01-15 14:58:00,
2013-01-15 09:03:00,34.3,32.8,30.13,NNE,20,1.0,7.0,94,0.00,,,0.08,Wunderground v.1.15,2013-01-15 15:03:00,
2013-01-15 09:08:00,34.2,32.7,30.14,NNE,31,2.0,7.0,94,0.00,,,0.08,Wunderground v.1.15,2013-01-15 15:08:00,
2013-01-15 09:14:00,34.1,32.6,30.13,ENE,65,3.0,7.0,94,0.00,,,0.08,Wunderground v.1.15,2013-01-15 15:14:00,
2013-01-15 09:19:00,34.3,32.8,30.14,NNW,344,3.0,7.0,94,0.00,,,0.08,Wunderground v.1.15,2013-01-15 15:19:00,
2013-01-15 09:25:00,34.4,32.9,30.15,NNE,14,1.0,7.0,94,0.00,,,0.08,Wunderground v.1.15,2013-01-15 15:25:00,
2013-01-15 09:31:00,34.4,32.9,30.14,WNW,283,1.0,7.0,94,0.00,,,0.08,Wunderground v.1.15,2013-01-15 15:31:00,
2013-01-15 09:37:00,34.4,32.9,30.14,North,8,1.0,7.0,94,0.00,,,0.08,Wunderground v.1.15,2013-01-15 15:37:00,
2013-01-15 09:42:00,34.4,32.9,30.14,NNE,20,1.0,7.0,94,0.00,,,0.09,Wunderground v.1.15,2013-01-15 15:42:00,
2013-01-15 09:47:00,34.7,33.2,30.14,NNW,336,1.0,1.0,94,0.00,,,0.09,Wunderground v.1.15,2013-01-15 15:47:00,
2013-01-15 09:53:00,34.7,33.2,30.14,NE,40,1.0,7.0,94,0.08,,,0.11,Wunderground v.1.15,2013-01-15 15:53:00,
2013-01-15 09:58:00,34.5,33.0,30.13,NNW,328,1.0,7.0,94,0.06,,,0.11,Wunderground v.1.15,2013-01-15 15:58:00,
2013-01-15 10:04:00,34.6,33.1,30.14,WNW,294,1.0,7.0,94,0.04,,,0.11,Wunderground v.1.15,2013-01-15 16:04:00,
2013-01-15 10:09:00,34.5,33.0,30.14,NNW,345,1.0,7.0,94,0.00,,,0.11,Wunderground v.1.15,2013-01-15 16:09:00,
2013-01-15 10:15:00,34.4,32.9,30.14,NE,41,2.0,7.0,94,0.00,,,0.11,Wunderground v.1.15,2013-01-15 16:15:00,
2013-01-15 10:20:00,34.3,32.8,30.13,NW,314,2.0,7.0,94,0.00,,,0.11,Wunderground v.1.15,2013-01-15 16:20:00,
2013-01-15 10:26:00,34.5,33.0,30.12,North,349,2.0,7.0,94,0.00,,,0.12,Wunderground v.1.15,2013-01-15 16:26:00,
2013-01-15 10:32:00,34.5,33.0,30.12,WSW,257,1.0,7.0,94,0.00,,,0.12,Wunderground v.1.15,2013-01-15 16:32:00,
2013-01-15 10:37:00,34.4,32.9,30.13,WNW,288,1.0,1.0,94,0.00,,,0.12,Wunderground v.1.15,2013-01-15 16:37:00,
2013-01-15 10:42:00,34.4,32.9,30.15,West,274,1.0,7.0,94,0.00,,,0.12,Wunderground v.1.15,2013-01-15 16:42:00,
2013-01-15 10:48:00,34.4,32.9,30.15,NNE,25,1.0,7.0,94,0.00,,,0.13,Wunderground v.1.15,2013-01-15 16:48:00,
2013-01-15 10:53:00,34.5,33.0,30.14,NW,316,1.0,7.0,94,0.14,,,0.14,Wunderground v.1.15,2013-01-15 16:53:00,
2013-01-15 10:58:00,34.5,33.0,30.14,North,356,1.0,7.0,94,0.10,,,0.14,Wunderground v.1.15,2013-01-15 16:58:00,
2013-01-15 11:04:00,34.7,33.2,30.15,WSW,243,1.0,7.0,94,0.09,,,0.15,Wunderground v.1.15,2013-01-15 17:04:00,
2013-01-15 11:09:00,34.7,33.2,30.14,North,1,1.0,7.0,94,0.06,,,0.15,Wunderground v.1.15,2013-01-15 17:09:00,
2013-01-15 11:14:00,34.9,33.6,30.14,NNW,331,1.0,7.0,95,0.05,,,0.16,Wunderground v.1.15,2013-01-15 17:14:00,
2013-01-15 11:20:00,35.1,33.8,30.13,ENE,65,1.0,7.0,95,0.09,,,0.17,Wunderground v.1.15,2013-01-15 17:20:00,
2013-01-15 11:25:00,35.1,33.8,30.12,NW,321,1.0,7.0,95,0.07,,,0.17,Wunderground v.1.15,2013-01-15 17:25:00,
2013-01-15 11:31:00,35.1,33.5,30.12,West,268,1.0,7.0,94,0.04,,,0.17,Wunderground v.1.15,2013-01-15 17:31:00,
2013-01-15 11:36:00,35.1,33.5,30.12,NNW,330,1.0,7.0,94,0.00,,,0.17,Wunderground v.1.15,2013-01-15 17:36:00,
2013-01-15 11:42:00,35.2,33.9,30.12,WNW,294,1.0,7.0,95,0.00,,,0.17,Wunderground v.1.15,2013-01-15 17:42:00,
2013-01-15 11:47:00,35.0,33.4,30.12,NW,314,1.0,7.0,94,0.00,,,0.17,Wunderground v.1.15,2013-01-15 17:47:00,
2013-01-15 11:52:00,34.9,33.3,30.12,ENE,77,2.0,7.0,94,0.00,,,0.18,Wunderground v.1.15,2013-01-15 17:52:00,
2013-01-15 11:57:00,35.0,33.7,30.11,ENE,68,2.0,2.0,95,0.27,,,0.20,Wunderground v.1.15,2013-01-15 17:57:00,
2013-01-15 12:03:00,34.9,33.3,30.12,WNW,295,2.0,3.0,94,0.11,,,0.21,Wunderground v.1.15,2013-01-15 18:03:00,
2013-01-15 12:08:00,34.8,33.2,30.11,NW,307,2.0,5.0,94,0.08,,,0.21,Wunderground v.1.15,2013-01-15 18:08:00,
2013-01-15 12:14:00,34.7,33.2,30.10,West,278,2.0,5.0,94,0.05,,,0.21,Wunderground v.1.15,2013-01-15 18:14:00,
2013-01-15 12:19:00,34.7,33.2,30.11,NW,309,2.0,2.0,94,0.05,,,0.22,Wunderground v.1.15,2013-01-15 18:19:00,
2013-01-15 12:24:00,34.6,33.1,30.11,WNW,297,2.0,4.0,94,0.05,,,0.22,Wunderground v.1.15,2013-01-15 18:24:00,
2013-01-15 12:29:00,34.7,33.2,30.11,NNW,334,2.0,2.0,94,0.04,,,0.22,Wunderground v.1.15,2013-01-15 18:29:00,
2013-01-15 12:35:00,34.6,33.1,30.11,NE,56,2.0,4.0,94,0.00,,,0.22,Wunderground v.1.15,2013-01-15 18:35:00,
2013-01-15 12:40:00,34.5,33.0,30.10,North,352,2.0,2.0,94,0.00,,,0.22,Wunderground v.1.15,2013-01-15 18:40:00,
2013-01-15 12:45:00,34.5,33.0,30.10,NNW,348,1.0,3.0,94,0.00,,,0.22,Wunderground v.1.15,2013-01-15 18:45:00,
2013-01-15 12:51:00,34.7,33.4,30.09,NNE,18,1.0,1.0,95,0.00,,,0.23,Wunderground v.1.15,2013-01-15 18:51:00,
2013-01-15 12:57:00,34.7,33.2,30.07,NW,314,1.0,2.0,94,0.00,,,0.23,Wunderground v.1.15,2013-01-15 18:57:00,
2013-01-15 13:02:00,34.7,33.2,30.08,NNW,333,1.0,5.0,94,0.00,,,0.23,Wunderground v.1.15,2013-01-15 19:02:00,
2013-01-15 13:08:00,34.6,33.1,30.08,NNE,20,2.0,2.0,94,0.00,,,0.23,Wunderground v.1.15,2013-01-15 19:08:00,
2013-01-15 13:14:00,34.5,33.0,30.08,WNW,298,2.0,5.0,94,0.00,,,0.23,Wunderground v.1.15,2013-01-15 19:14:00,
2013-01-15 13:19:00,34.7,33.2,30.08,WSW,238,1.0,5.0,94,0.00,,,0.23,Wunderground v.1.15,2013-01-15 19:19:00,
2013-01-15 13:24:00,34.8,33.2,30.07,SW,232,1.0,5.0,94,0.00,,,0.23,Wunderground v.1.15,2013-01-15 19:24:00,
2013-01-15 13:30:00,34.8,33.2,30.08,ENE,63,1.0,5.0,94,0.00,,,0.25,Wunderground v.1.15,2013-01-15 19:30:00,
2013-01-15 13:35:00,34.6,33.1,30.07,North,9,2.0,5.0,94,0.12,,,0.26,Wunderground v.1.15,2013-01-15 19:35:00,
2013-01-15 13:40:00,34.7,33.2,30.07,NNW,344,2.0,5.0,94,0.10,,,0.26,Wunderground v.1.15,2013-01-15 19:40:00,
2013-01-15 13:46:00,34.5,33.0,30.06,NNW,336,2.0,5.0,94,0.47,,,0.29,Wunderground v.1.15,2013-01-15 19:46:00,
2013-01-15 13:51:00,34.4,32.9,30.06,ESE,102,3.0,5.0,94,0.12,,,0.30,Wunderground v.1.15,2013-01-15 19:51:00,
2013-01-15 13:57:00,34.4,32.9,30.07,WNW,302,2.0,5.0,94,0.06,,,0.30,Wunderground v.1.15,2013-01-15 19:57:00,
2013-01-15 14:02:00,34.5,33.0,30.07,NW,309,1.0,5.0,94,0.04,,,0.30,Wunderground v.1.15,2013-01-15 20:02:00,
2013-01-15 14:07:00,34.6,33.1,30.07,East,81,1.0,1.0,94,0.00,,,0.30,Wunderground v.1.15,2013-01-15 20:07:00,
2013-01-15 14:13:00,34.7,33.2,30.07,NNE,28,1.0,5.0,94,0.00,,,0.31,Wunderground v.1.15,2013-01-15 20:13:00,
2013-01-15 14:18:00,34.7,33.2,30.07,WNW,301,1.0,5.0,94,0.29,,,0.33,Wunderground v.1.15,2013-01-15 20:18:00,
2013-01-15 14:23:00,34.8,33.2,30.08,NNE,30,1.0,5.0,94,0.09,,,0.33,Wunderground v.1.15,2013-01-15 20:23:00,
2013-01-15 14:29:00,34.7,33.2,30.06,NNE,27,1.0,5.0,94,0.06,,,0.34,Wunderground v.1.15,2013-01-15 20:29:00,
2013-01-15 14:34:00,35.0,33.7,30.06,NE,41,1.0,5.0,95,0.06,,,0.34,Wunderground v.1.15,2013-01-15 20:34:00,
2013-01-15 14:39:00,34.7,33.2,30.05,North,4,2.0,5.0,94,0.05,,,0.34,Wunderground v.1.15,2013-01-15 20:39:00,
2013-01-15 14:45:00,34.6,33.1,30.04,NE,46,2.0,5.0,94,0.00,,,0.34,Wunderground v.1.15,2013-01-15 20:45:00,
2013-01-15 14:51:00,34.7,33.2,30.03,ENE,62,2.0,5.0,94,0.00,,,0.34,Wunderground v.1.15,2013-01-15 20:51:00,
2013-01-15 14:57:00,34.8,33.2,30.03,North,5,3.0,3.0,94,0.00,,,0.34,Wunderground v.1.15,2013-01-15 20:57:00,
2013-01-15 15:02:00,35.0,33.4,30.04,East,91,2.0,5.0,94,0.00,,,0.34,Wunderground v.1.15,2013-01-15 21:02:00,
2013-01-15 15:07:00,34.8,33.2,30.05,NNE,33,2.0,5.0,94,0.00,,,0.34,Wunderground v.1.15,2013-01-15 21:07:00,
2013-01-15 15:12:00,34.9,33.3,30.07,WNW,295,2.0,5.0,94,0.00,,,0.34,Wunderground v.1.15,2013-01-15 21:12:00,
2013-01-15 15:18:00,35.0,33.4,30.08,WNW,290,1.0,5.0,94,0.00,,,0.34,Wunderground v.1.15,2013-01-15 21:18:00,
2013-01-15 15:23:00,35.2,33.9,30.10,NE,43,1.0,5.0,95,0.00,,,0.34,Wunderground v.1.15,2013-01-15 21:23:00,
2013-01-15 15:29:00,35.2,33.6,30.10,WNW,297,1.0,5.0,94,0.00,,,0.34,Wunderground v.1.15,2013-01-15 21:29:00,
2013-01-15 15:35:00,35.1,33.5,30.08,ENE,58,2.0,5.0,94,0.00,,,0.34,Wunderground v.1.15,2013-01-15 21:35:00,
2013-01-15 15:40:00,35.1,33.5,30.08,WNW,288,2.0,5.0,94,0.00,,,0.34,Wunderground v.1.15,2013-01-15 21:40:00,
2013-01-15 15:45:00,35.0,33.4,30.08,NW,324,2.0,5.0,94,0.00,,,0.34,Wunderground v.1.15,2013-01-15 21:45:00,
2013-01-15 15:51:00,34.9,33.3,30.07,NNE,23,2.0,5.0,94,0.00,,,0.34,Wunderground v.1.15,2013-01-15 21:51:00,
2013-01-15 15:57:00,34.9,33.3,30.06,NE,44,2.0,5.0,94,0.00,,,0.34,Wunderground v.1.15,2013-01-15 21:57:00,
2013-01-15 16:02:00,34.8,33.2,30.06,North,10,3.0,5.0,94,0.00,,,0.34,Wunderground v.1.15,2013-01-15 22:02:00,
2013-01-15 16:07:00,34.8,33.2,30.05,NNE,18,3.0,3.0,94,0.00,,,0.34,Wunderground v.1.15,2013-01-15 22:07:00,
2013-01-15 16:13:00,34.8,33.2,30.05,NW,321,3.0,5.0,94,0.00,,,0.34,Wunderground v.1.15,2013-01-15 22:13:00,
2013-01-15 16:18:00,34.9,33.3,30.06,East,84,2.0,5.0,94,0.00,,,0.34,Wunderground v.1.15,2013-01-15 22:18:00,
2013-01-15 16:23:00,34.9,33.3,30.07,NE,43,2.0,6.0,94,0.00,,,0.34,Wunderground v.1.15,2013-01-15 22:23:00,
2013-01-15 16:29:00,34.9,33.1,30.07,North,358,2.0,5.0,93,0.00,,,0.34,Wunderground v.1.15,2013-01-15 22:29:00,
2013-01-15 16:34:00,34.9,33.1,30.07,NNE,33,2.0,5.0,93,0.00,,,0.34,Wunderground v.1.15,2013-01-15 22:34:00,
2013-01-15 16:39:00,34.9,33.1,30.07,NNE,33,2.0,6.0,93,0.00,,,0.34,Wunderground v.1.15,2013-01-15 22:39:00,
2013-01-15 16:45:00,35.0,33.4,30.07,WNW,296,2.0,6.0,94,0.00,,,0.34,Wunderground v.1.15,2013-01-15 22:45:00,
2013-01-15 16:51:00,35.0,33.2,30.07,NNW,338,1.0,5.0,93,0.00,,,0.34,Wunderground v.1.15,2013-01-15 22:51:00,
2013-01-15 16:57:00,35.0,33.4,30.08,NW,316,1.0,1.0,94,0.00,,,0.34,Wunderground v.1.15,2013-01-15 22:57:00,
2013-01-15 17:02:00,34.9,33.3,30.08,North,349,1.0,5.0,94,0.00,,,0.34,Wunderground v.1.15,2013-01-15 23:02:00,
2013-01-15 17:07:00,35.0,33.4,30.08,NNE,12,1.0,5.0,94,0.00,,,0.34,Wunderground v.1.15,2013-01-15 23:07:00,
2013-01-15 17:13:00,35.0,33.4,30.08,NE,44,1.0,5.0,94,0.00,,,0.34,Wunderground v.1.15,2013-01-15 23:13:00,
2013-01-15 17:18:00,34.9,33.3,30.08,NNE,22,1.0,5.0,94,0.00,,,0.34,Wunderground v.1.15,2013-01-15 23:18:00,
2013-01-15 17:23:00,34.8,33.2,30.08,North,10,1.0,5.0,94,0.00,,,0.34,Wunderground v.1.15,2013-01-15 23:23:00,
2013-01-15 17:29:00,34.7,33.2,30.08,SW,233,1.0,5.0,94,0.00,,,0.34,Wunderground v.1.15,2013-01-15 23:29:00,
2013-01-15 17:35:00,34.7,33.2,30.08,North,9,1.0,5.0,94,0.00,,,0.34,Wunderground v.1.15,2013-01-15 23:35:00,
2013-01-15 17:40:00,34.6,33.1,30.09,ENE,58,1.0,5.0,94,0.00,,,0.34,Wunderground v.1.15,2013-01-15 23:40:00,
2013-01-15 17:45:00,34.4,32.9,30.09,NNE,23,2.0,5.0,94,0.00,,,0.34,Wunderground v.1.15,2013-01-15 23:45:00,
2013-01-15 17:51:00,34.4,32.9,30.10,WNW,288,1.0,5.0,94,0.00,,,0.34,Wunderground v.1.15,2013-01-15 23:51:00,
2013-01-15 17:56:00,34.3,32.8,30.10,WSW,257,1.0,5.0,94,0.00,,,0.34,Wunderground v.1.15,2013-01-15 23:56:00,
2013-01-15 18:02:00,34.2,32.7,30.11,WNW,288,2.0,5.0,94,0.00,,,0.34,Wunderground v.1.15,2013-01-16 00:02:00,
2013-01-15 18:07:00,34.3,32.8,30.10,NNE,25,1.0,5.0,94,0.00,,,0.34,Wunderground v.1.15,2013-01-16 00:07:00,
2013-01-15 18:12:00,34.2,32.7,30.09,NE,47,1.0,5.0,94,0.00,,,0.34,Wunderground v.1.15,2013-01-16 00:12:00,
2013-01-15 18:18:00,34.2,32.7,30.09,NE,41,1.0,5.0,94,0.00,,,0.35,Wunderground v.1.15,2013-01-16 00:18:00,
2013-01-15 18:23:00,34.1,32.6,30.09,East,81,2.0,5.0,94,0.00,,,0.35,Wunderground v.1.15,2013-01-16 00:23:00,
2013-01-15 18:28:00,34.2,32.7,30.09,ENE,67,2.0,5.0,94,0.00,,,0.35,Wunderground v.1.15,2013-01-16 00:28:00,
2013-01-15 18:34:00,34.1,32.6,30.08,NE,41,2.0,5.0,94,0.00,,,0.35,Wunderground v.1.15,2013-01-16 00:34:00,
2013-01-15 18:39:00,34.2,32.7,30.09,NE,44,2.0,5.0,94,0.00,,,0.35,Wunderground v.1.15,2013-01-16 00:39:00,
2013-01-15 18:44:00,34.2,32.7,30.09,North,358,2.0,5.0,94,0.00,,,0.35,Wunderground v.1.15,2013-01-16 00:44:00,
2013-01-15 18:49:00,34.3,32.8,30.09,ENE,63,1.0,5.0,94,0.00,,,0.35,Wunderground v.1.15,2013-01-16 00:49:00,
2013-01-15 18:55:00,34.4,33.1,30.09,NW,315,1.0,5.0,95,0.00,,,0.35,Wunderground v.1.15,2013-01-16 00:55:00,
2013-01-15 19:00:00,34.5,33.0,30.10,NW,325,1.0,5.0,94,0.00,,,0.35,Wunderground v.1.15,2013-01-16 01:00:00,
2013-01-15 19:05:00,34.4,32.9,30.10,NNW,339,1.0,5.0,94,0.00,,,0.35,Wunderground v.1.15,2013-01-16 01:05:00,
2013-01-15 19:11:00,34.4,32.9,30.10,NW,304,1.0,5.0,94,0.00,,,0.35,Wunderground v.1.15,2013-01-16 01:11:00,
2013-01-15 19:16:00,34.4,32.9,30.10,NNE,22,1.0,5.0,94,0.00,,,0.35,Wunderground v.1.15,2013-01-16 01:16:00,
2013-01-15 19:22:00,34.3,32.8,30.11,NE,37,1.0,5.0,94,0.00,,,0.35,Wunderground v.1.15,2013-01-16 01:22:00,
2013-01-15 19:27:00,34.3,32.8,30.11,North,11,1.0,5.0,94,0.00,,,0.35,Wunderground v.1.15,2013-01-16 01:27:00,
2013-01-15 19:32:00,34.3,32.8,30.12,WSW,250,1.0,5.0,94,0.00,,,0.35,Wunderground v.1.15,2013-01-16 01:32:00,
2013-01-15 19:38:00,34.4,32.9,30.11,NNE,15,1.0,5.0,94,0.00,,,0.35,Wunderground v.1.15,2013-01-16 01:38:00,
2013-01-15 19:43:00,34.3,32.8,30.11,NNW,327,1.0,5.0,94,0.00,,,0.35,Wunderground v.1.15,2013-01-16 01:43:00,
2013-01-15 19:48:00,34.3,32.8,30.11,WNW,298,1.0,5.0,94,0.00,,,0.35,Wunderground v.1.15,2013-01-16 01:48:00,
2013-01-15 19:54:00,34.2,32.7,30.12,WNW,298,2.0,5.0,94,0.00,,,0.35,Wunderground v.1.15,2013-01-16 01:54:00,
2013-01-15 20:01:00,34.2,32.7,30.11,NNE,15,2.0,5.0,94,0.00,,,0.35,Wunderground v.1.15,2013-01-16 02:01:00,
2013-01-15 20:06:00,34.2,32.7,30.11,NNE,18,1.0,5.0,94,0.00,,,0.35,Wunderground v.1.15,2013-01-16 02:06:00,
2013-01-15 20:11:00,34.1,32.6,30.10,NNW,346,1.0,5.0,94,0.00,,,0.35,Wunderground v.1.15,2013-01-16 02:11:00,
2013-01-15 20:17:00,34.0,32.5,30.10,NE,52,1.0,5.0,94,0.00,,,0.35,Wunderground v.1.15,2013-01-16 02:17:00,
2013-01-15 20:22:00,34.0,32.5,30.11,NW,322,1.0,5.0,94,0.00,,,0.35,Wunderground v.1.15,2013-01-16 02:22:00,
2013-01-15 20:27:00,34.0,32.5,30.10,WSW,256,1.0,1.0,94,0.00,,,0.36,Wunderground v.1.15,2013-01-16 02:27:00,
2013-01-15 20:33:00,34.0,32.5,30.11,NNW,338,1.0,5.0,94,0.00,,,0.36,Wunderground v.1.15,2013-01-16 02:33:00,
2013-01-15 20:38:00,34.0,32.5,30.10,NNE,20,1.0,5.0,94,0.06,,,0.37,Wunderground v.1.15,2013-01-16 02:38:00,
2013-01-15 20:43:00,34.0,32.5,30.11,WNW,290,1.0,5.0,94,0.10,,,0.39,Wunderground v.1.15,2013-01-16 02:43:00,
2013-01-15 20:49:00,34.0,32.5,30.11,NW,314,1.0,5.0,94,0.09,,,0.40,Wunderground v.1.15,2013-01-16 02:49:00,
2013-01-15 20:54:00,33.9,32.4,30.11,NW,305,1.0,5.0,94,0.09,,,0.40,Wunderground v.1.15,2013-01-16 02:54:00,
2013-01-15 20:59:00,33.9,32.4,30.10,NE,35,1.0,5.0,94,0.09,,,0.41,Wunderground v.1.15,2013-01-16 02:59:00,
2013-01-15 21:05:00,33.8,32.3,30.10,NW,322,1.0,5.0,94,0.07,,,0.42,Wunderground v.1.15,2013-01-16 03:05:00,
2013-01-15 21:10:00,33.9,32.4,30.10,NE,37,0.0,5.0,94,0.07,,,0.42,Wunderground v.1.15,2013-01-16 03:10:00,
2013-01-15 21:16:00,33.9,32.4,30.12,West,281,1.0,5.0,94,0.05,,,0.42,Wunderground v.1.15,2013-01-16 03:16:00,
2013-01-15 21:21:00,33.8,32.3,30.11,NW,321,2.0,5.0,94,0.04,,,0.43,Wunderground v.1.15,2013-01-16 03:21:00,
2013-01-15 21:27:00,33.8,32.5,30.11,NW,313,1.0,5.0,95,0.23,,,0.45,Wunderground v.1.15,2013-01-16 03:27:00,
2013-01-15 21:32:00,33.7,32.4,30.12,WNW,302,2.0,5.0,95,0.26,,,0.47,Wunderground v.1.15,2013-01-16 03:32:00,
2013-01-15 21:38:00,33.6,32.3,30.12,NW,305,2.0,5.0,95,0.15,,,0.48,Wunderground v.1.15,2013-01-16 03:38:00,
2013-01-15 21:44:00,33.5,32.2,30.12,NW,311,2.0,5.0,95,0.07,,,0.48,Wunderground v.1.15,2013-01-16 03:44:00,
2013-01-15 21:49:00,33.5,32.2,30.13,North,357,2.0,5.0,95,0.17,,,0.50,Wunderground v.1.15,2013-01-16 03:49:00,
2013-01-15 21:54:00,33.5,32.2,30.13,West,276,2.0,5.0,95,0.12,,,0.50,Wunderground v.1.15,2013-01-16 03:54:00,
2013-01-15 22:00:00,33.7,32.4,30.12,NW,305,1.0,5.0,95,0.10,,,0.51,Wunderground v.1.15,2013-01-16 04:00:00,
2013-01-15 22:05:00,33.7,32.4,30.12,West,276,1.0,5.0,95,0.05,,,0.51,Wunderground v.1.15,2013-01-16 04:05:00,
2013-01-15 22:11:00,33.6,32.3,30.11,West,269,2.0,5.0,95,0.04,,,0.53,Wunderground v.1.15,2013-01-16 04:11:00,
2013-01-15 22:17:00,33.7,32.4,30.13,West,277,1.0,5.0,95,0.04,,,0.53,Wunderground v.1.15,2013-01-16 04:17:00,
2013-01-15 22:22:00,33.7,32.4,30.12,NW,305,1.0,5.0,95,0.04,,,0.53,Wunderground v.1.15,2013-01-16 04:22:00,
2013-01-15 22:27:00,33.7,32.4,30.12,WNW,288,1.0,5.0,95,0.04,,,0.53,Wunderground v.1.15,2013-01-16 04:27:00,
2013-01-15 22:32:00,33.7,32.4,30.12,NW,316,1.0,5.0,95,0.00,,,0.53,Wunderground v.1.15,2013-01-16 04:32:00,
2013-01-15 22:38:00,33.7,32.4,30.13,West,274,1.0,5.0,95,0.00,,,0.53,Wunderground v.1.15,2013-01-16 04:38:00,
2013-01-15 22:43:00,33.7,32.4,30.13,NW,306,2.0,5.0,95,0.00,,,0.53,Wunderground v.1.15,2013-01-16 04:43:00,
2013-01-15 22:49:00,33.8,32.5,30.13,SW,232,1.0,5.0,95,0.00,,,0.53,Wunderground v.1.15,2013-01-16 04:49:00,
2013-01-15 22:54:00,33.7,32.4,30.13,WNW,293,1.0,5.0,95,0.00,,,0.54,Wunderground v.1.15,2013-01-16 04:54:00,
2013-01-15 23:00:00,33.7,32.4,30.13,NW,309,1.0,5.0,95,0.00,,,0.54,Wunderground v.1.15,2013-01-16 05:00:00,
2013-01-15 23:03:00,33.6,32.3,30.14,WNW,288,1.0,5.0,95,0.00,,,0.54,Wunderground v.1.15,2013-01-16 05:03:00,
2013-01-15 23:05:00,33.6,32.3,30.14,East,89,1.0,5.0,95,0.00,,,0.54,Wunderground v.1.15,2013-01-16 05:05:00,
2013-01-15 23:11:00,33.6,32.3,30.13,NW,310,1.0,5.0,95,0.00,,,0.54,Wunderground v.1.15,2013-01-16 05:11:00,
2013-01-15 23:16:00,33.7,32.4,30.13,WNW,302,1.0,5.0,95,0.00,,,0.55,Wunderground v.1.15,2013-01-16 05:16:00,
2013-01-15 23:21:00,33.6,32.3,30.12,WNW,290,1.0,5.0,95,0.15,,,0.56,Wunderground v.1.15,2013-01-16 05:21:00,
2013-01-15 23:22:00,33.6,32.3,30.13,SSW,202,1.0,5.0,95,0.15,,,0.56,Wunderground v.1.15,2013-01-16 05:22:00,
2013-01-15 23:27:00,33.6,32.3,30.13,WNW,302,1.0,5.0,95,0.07,,,0.56,Wunderground v.1.15,2013-01-16 05:27:00,
2013-01-15 23:33:00,33.6,32.3,30.13,North,351,1.0,5.0,95,0.04,,,0.56,Wunderground v.1.15,2013-01-16 05:33:00,
2013-01-15 23:38:00,33.6,32.3,30.13,WNW,302,2.0,5.0,95,0.04,,,0.57,Wunderground v.1.15,2013-01-16 05:38:00,
2013-01-15 23:44:00,33.5,32.2,30.12,West,278,2.0,5.0,95,0.04,,,0.57,Wunderground v.1.15,2013-01-16 05:44:00,
2013-01-15 23:50:00,33.5,32.2,30.10,NNE,27,1.0,5.0,95,0.04,,,0.57,Wunderground v.1.15,2013-01-16 05:50:00,
2013-01-15 23:55:00,33.5,32.2,30.11,NE,39,1.0,5.0,95,0.00,,,0.57,Wunderground v.1.15,2013-01-16 05:55:00,